Location: Hastringsfeld
(50.9620°N, 10.4787°E)
Time: 05:28:03
(UTC+00:00)

NOSS 3-1 (A) - Pass Details

Date: 26 September 2023
Orbit: 677 x 1534 km, 63.4° (Epoch: 03 November)

Event Time Altitude Azimuth Distance (km) Brightness Sun altitude
Rises 04:05:41 0° 315° (NW) 3,827 6.3 -10.9°
Reaches altitude 10° 04:08:08 10° 312° (NW) 2,984 5.7 -10.5°
Maximum altitude 04:15:19 66° 233° (SW) 1,392 4.1 -9.4°
Drops below altitude 10° 04:23:57 10° 154° (SSE) 3,553 6.7 -8.0°
Sets 04:27:07 0° 152° (SSE) 4,598 7.3 -7.6°
